{"data":{"norad_id":63971,"epoch":"2026-09-20T09:23:02.222880Z","epoch_age_seconds":153125,"freshness":"FRESH","line1":"1 63971U 25099V   26263.39099795  .00012798  00000+0  47374-3 0  9995","line2":"2 63971  42.9989 153.1492 0000928 293.3650  66.7104 15.27581662 77158","mean_motion":15.27581662,"eccentricity":9.28e-5,"inclination_deg":42.9989,"raan_deg":153.1492,"arg_perigee_deg":293.365,"mean_anomaly_deg":66.7104,"bstar":0.00047374,"rev_number":7715,"period_min":94.266646151975,"perigee_km":482.40740181038,"apogee_km":483.68083702615,"semimajor_km":6861.1811194183,"source":"CELESTRAK","updated_at":"2026-09-21T09:00:35.177734Z"}}